| time (UTC) | temp C | wind direction | speed KPH | gust KPH | rain 1hr cm | rain 24hr cm | rain mn cm | humidity % | barometer mb |
| 20260504175503 | 21 | 275 | 8.0 | 32.2 | 0.00 | 0.00 | 0.00 | 28 | 1009.3 |
| 20260504175003 | 21 | 305 | 9.7 | 32.2 | 0.00 | 0.00 | 0.00 | 30 | 1009.3 |
| 20260504174503 | 21 | 295 | 9.7 | 25.7 | 0.00 | 0.00 | 0.00 | 28 | 1009.6 |
| 20260504174003 | 21 | 277 | 9.7 | 32.2 | 0.00 | 0.00 | 0.00 | 28 | 1009.3 |
| 20260504173503 | 21 | 293 | 8.0 | 32.2 | 0.00 | 0.00 | 0.00 | 28 | 1009.6 |
| 20260504173003 | 21 | 268 | 8.0 | 48.3 | 0.00 | 0.00 | 0.00 | 28 | 1009.6 |
| 20260504172503 | 21 | 240 | 8.0 | 48.3 | 0.00 | 0.00 | 0.00 | 29 | 1009.6 |
| 20260504172003 | 21 | 251 | 8.0 | 32.2 | 0.00 | 0.00 | 0.00 | 29 | 1009.6 |
| 20260504171503 | 21 | 291 | 9.7 | 32.2 | 0.00 | 0.00 | 0.00 | 28 | 1009.6 |
| 20260504171003 | 20 | 303 | 11.3 | 40.2 | 0.00 | 0.00 | 0.00 | 29 | 1009.6 |
| 20260504170503 | 20 | 353 | 12.9 | 40.2 | 0.00 | 0.00 | 0.00 | 29 | 1009.6 |
| 20260504151003 | 19 | 300 | 11.3 | 27.4 | 0.00 | 0.00 | 0.00 | 29 | 1011.3 |
| 20260504150503 | 19 | 307 | 11.3 | 27.4 | 0.00 | 0.00 | 0.00 | 30 | 1011.3 |
| 20260504141003 | 17 | 257 | 9.7 | 32.2 | 0.00 | 0.00 | 0.00 | 31 | 1011.6 |
| 20260504140504 | 17 | 243 | 8.0 | 32.2 | 0.00 | 0.00 | 0.00 | 32 | 1011.6 |
| 20260504130503 | 15 | 275 | 4.8 | 19.3 | 0.00 | 0.00 | 0.00 | 41 | 1012.7 |
| 20260504110503 | 6 | 0 | 0.0 | 0.0 | 0.00 | 0.00 | 0.00 | 67 | 1012.7 |
| 20260504100503 | 4 | 16 | 0.0 | 4.8 | 0.00 | 0.00 | 0.00 | 76 | 1012.7 |
| 20260504082003 | 3 | 0 | 0.0 | 0.0 | 0.00 | 0.00 | 0.00 | 81 | 1012.3 |
| 20260504081503 | 3 | 256 | 0.0 | 3.2 | 0.00 | 0.00 | 0.00 | 81 | 1012.3 |
| 20260504081003 | 3 | 256 | 0.0 | 3.2 | 0.00 | 0.00 | 0.00 | 81 | 1012.3 |
| 20260504080503 | 3 | 256 | 0.0 | 3.2 | 0.00 | 0.00 | 0.00 | 78 | 1012.0 |
| 20260504050503 | 3 | 0 | 0.0 | 0.0 | 0.00 | 0.00 | 0.00 | 81 | 1011.6 |
| 20260504050003 | 3 | 0 | 0.0 | 0.0 | 0.00 | 0.00 | 0.00 | 81 | 1012.0 |
| 20260504045503 | 3 | 0 | 0.0 | 0.0 | 0.00 | 0.00 | 0.00 | 81 | 1012.0 |
| 20260504045003 | 3 | 0 | 0.0 | 0.0 | 0.00 | 0.00 | 0.00 | 81 | 1012.0 |
| 20260504044504 | 3 | 0 | 0.0 | 0.0 | 0.00 | 0.00 | 0.00 | 81 | 1011.6 |
| 20260504044003 | 3 | 0 | 0.0 | 0.0 | 0.00 | 0.00 | 0.00 | 81 | 1012.0 |
| 20260504043503 | 3 | 0 | 0.0 | 0.0 | 0.00 | 0.00 | 0.00 | 82 | 1012.0 |
| 20260504043003 | 3 | 0 | 0.0 | 0.0 | 0.00 | 0.00 | 0.00 | 83 | 1012.0 |
| 20260504042503 | 3 | 0 | 0.0 | 0.0 | 0.00 | 0.00 | 0.00 | 82 | 1012.0 |
| 20260504042003 | 3 | 0 | 0.0 | 0.0 | 0.00 | 0.00 | 0.00 | 81 | 1012.0 |
| 20260504041503 | 3 | 0 | 0.0 | 0.0 | 0.00 | 0.00 | 0.00 | 79 | 1011.6 |
| 20260504041003 | 3 | 0 | 0.0 | 0.0 | 0.00 | 0.00 | 0.00 | 78 | 1011.6 |
| 20260504040503 | 3 | 0 | 0.0 | 0.0 | 0.00 | 0.00 | 0.00 | 78 | 1011.6 |
| 20260504040004 | 3 | 0 | 0.0 | 0.0 | 0.00 | 0.00 | 0.00 | 77 | 1011.6 |
| 20260504035503 | 3 | 0 | 0.0 | 0.0 | 0.00 | 0.00 | 0.00 | 78 | 1011.6 |
| 20260504035003 | 3 | 0 | 0.0 | 0.0 | 0.00 | 0.00 | 0.00 | 79 | 1011.6 |
| 20260504034503 | 4 | 0 | 0.0 | 0.0 | 0.00 | 0.00 | 0.00 | 76 | 1011.6 |
| 20260504034003 | 4 | 0 | 0.0 | 0.0 | 0.00 | 0.00 | 0.00 | 76 | 1011.6 |
| 20260504033503 | 4 | 0 | 0.0 | 0.0 | 0.00 | 0.00 | 0.00 | 76 | 1011.6 |
| 20260504033003 | 4 | 0 | 0.0 | 0.0 | 0.00 | 0.00 | 0.00 | 73 | 1011.6 |
| 20260504032503 | 4 | 0 | 0.0 | 0.0 | 0.00 | 0.00 | 0.00 | 73 | 1011.6 |
| 20260504032003 | 4 | 0 | 0.0 | 0.0 | 0.00 | 0.00 | 0.00 | 73 | 1011.6 |
| 20260504031503 | 4 | 0 | 0.0 | 0.0 | 0.00 | 0.00 | 0.00 | 73 | 1011.3 |
| 20260504031003 | 5 | 0 | 0.0 | 0.0 | 0.00 | 0.00 | 0.00 | 72 | 1011.6 |
| 20260504030503 | 4 | 0 | 0.0 | 0.0 | 0.00 | 0.00 | 0.00 | 72 | 1011.6 |
| 20260504030003 | 4 | 0 | 0.0 | 0.0 | 0.00 | 0.00 | 0.00 | 72 | 1011.6 |
| 20260504025503 | 4 | 0 | 0.0 | 0.0 | 0.00 | 0.00 | 0.00 | 72 | 1011.6 |
| 20260504025003 | 4 | 0 | 0.0 | 0.0 | 0.00 | 0.00 | 0.00 | 72 | 1011.3 |
| 20260504024503 | 4 | 0 | 0.0 | 0.0 | 0.00 | 0.00 | 0.00 | 72 | 1011.3 |
| 20260504024003 | 5 | 0 | 0.0 | 0.0 | 0.00 | 0.00 | 0.00 | 69 | 1011.3 |
| 20260504023503 | 5 | 0 | 0.0 | 0.0 | 0.00 | 0.00 | 0.00 | 69 | 1011.6 |
| 20260504023003 | 5 | 0 | 0.0 | 0.0 | 0.00 | 0.00 | 0.00 | 69 | 1011.3 |
| 20260504022503 | 5 | 0 | 0.0 | 0.0 | 0.00 | 0.00 | 0.00 | 66 | 1011.3 |
| 20260504022003 | 5 | 0 | 0.0 | 0.0 | 0.00 | 0.00 | 0.00 | 66 | 1011.3 |
| 20260504021504 | 5 | 0 | 0.0 | 0.0 | 0.00 | 0.00 | 0.00 | 66 | 1011.3 |
| 20260504021003 | 5 | 0 | 0.0 | 0.0 | 0.00 | 0.00 | 0.00 | 66 | 1011.3 |
| 20260504020503 | 5 | 0 | 0.0 | 0.0 | 0.00 | 0.00 | 0.00 | 66 | 1011.3 |
| 20260504020004 | 6 | 0 | 0.0 | 0.0 | 0.00 | 0.00 | 0.00 | 63 | 1011.3 |
| 20260504015503 | 6 | 0 | 0.0 | 0.0 | 0.00 | 0.00 | 0.00 | 63 | 1011.3 |
| 20260504015003 | 6 | 0 | 0.0 | 0.0 | 0.00 | 0.00 | 0.00 | 62 | 1011.3 |
| 20260504014503 | 6 | 0 | 0.0 | 0.0 | 0.00 | 0.00 | 0.00 | 61 | 1011.3 |
| 20260504014003 | 6 | 0 | 0.0 | 0.0 | 0.00 | 0.00 | 0.00 | 60 | 1011.3 |
| 20260504013503 | 7 | 0 | 0.0 | 0.0 | 0.00 | 0.00 | 0.00 | 59 | 1011.0 |
| 20260504013003 | 7 | 0 | 0.0 | 0.0 | 0.00 | 0.00 | 0.00 | 58 | 1011.0 |
| 20260504012503 | 7 | 0 | 0.0 | 0.0 | 0.00 | 0.00 | 0.00 | 57 | 1010.6 |
| 20260504012003 | 7 | 0 | 0.0 | 0.0 | 0.00 | 0.00 | 0.00 | 58 | 1010.6 |
| 20260504011503 | 7 | 0 | 0.0 | 0.0 | 0.00 | 0.00 | 0.00 | 58 | 1010.6 |
| 20260504011003 | 8 | 0 | 0.0 | 0.0 | 0.00 | 0.00 | 0.00 | 56 | 1010.6 |
| 20260504010503 | 8 | 0 | 0.0 | 0.0 | 0.00 | 0.00 | 0.00 | 55 | 1010.6 |
| 20260504010003 | 8 | 0 | 0.0 | 0.0 | 0.00 | 0.00 | 0.00 | 54 | 1010.6 |
| 20260504005503 | 8 | 0 | 0.0 | 0.0 | 0.00 | 0.00 | 0.00 | 54 | 1010.6 |
| 20260504005004 | 8 | 0 | 0.0 | 0.0 | 0.00 | 0.00 | 0.00 | 55 | 1010.6 |
| 20260504004503 | 8 | 0 | 0.0 | 0.0 | 0.00 | 0.00 | 0.00 | 52 | 1010.3 |
| 20260504004003 | 8 | 0 | 0.0 | 0.0 | 0.00 | 0.00 | 0.00 | 50 | 1010.3 |
| 20260504003503 | 8 | 227 | 0.0 | 3.2 | 0.00 | 0.00 | 0.00 | 48 | 1010.3 |
| 20260504003003 | 9 | 227 | 0.0 | 3.2 | 0.00 | 0.00 | 0.00 | 48 | 1010.3 |
| 20260504002503 | 9 | 165 | 0.0 | 3.2 | 0.00 | 0.00 | 0.00 | 46 | 1009.9 |
| 20260504002003 | 10 | 146 | 0.0 | 3.2 | 0.00 | 0.00 | 0.00 | 45 | 1009.6 |
| 20260504001503 | 10 | 114 | 0.0 | 3.2 | 0.00 | 0.00 | 0.00 | 45 | 1009.9 |
| 20260504001003 | 10 | 127 | 0.0 | 3.2 | 0.00 | 0.00 | 0.00 | 45 | 1009.9 |
| 20260504000503 | 10 | 131 | 0.0 | 3.2 | 0.00 | 0.00 | 0.00 | 44 | 1009.6 |
| 20260504000003 | 10 | 0 | 0.0 | 0.0 | 0.00 | 0.00 | 0.00 | 42 | 1009.6 |
| 20260503235503 | 10 | 114 | 0.0 | 4.8 | 0.00 | 0.00 | 0.00 | 39 | 1009.6 |
| 20260503235003 | 11 | 105 | 1.6 | 4.8 | 0.00 | 0.00 | 0.00 | 37 | 1009.3 |
| 20260503234503 | 11 | 103 | 3.2 | 4.8 | 0.00 | 0.00 | 0.00 | 33 | 1009.6 |
| 20260503234003 | 11 | 44 | 4.8 | 6.4 | 0.00 | 0.00 | 0.00 | 33 | 1009.3 |
| 20260503233503 | 11 | 343 | 4.8 | 6.4 | 0.00 | 0.00 | 0.00 | 33 | 1009.6 |
| 20260503233003 | 12 | 289 | 1.6 | 6.4 | 0.00 | 0.00 | 0.00 | 32 | 1009.6 |
| 20260503232503 | 12 | 250 | 1.6 | 4.8 | 0.00 | 0.00 | 0.00 | 32 | 1009.3 |
| 20260503232003 | 12 | 243 | 3.2 | 4.8 | 0.00 | 0.00 | 0.00 | 32 | 1009.6 |
| 20260503231503 | 12 | 66 | 1.6 | 8.0 | 0.00 | 0.00 | 0.00 | 31 | 1009.3 |
| 20260503231003 | 12 | 297 | 1.6 | 8.0 | 0.00 | 0.00 | 0.00 | 30 | 1008.9 |
| 20260503230503 | 12 | 223 | 3.2 | 11.3 | 0.00 | 0.00 | 0.00 | 30 | 1009.3 |
| 20260503230003 | 12 | 204 | 4.8 | 11.3 | 0.00 | 0.00 | 0.00 | 30 | 1009.3 |
| 20260503225503 | 13 | 300 | 4.8 | 11.3 | 0.00 | 0.00 | 0.00 | 30 | 1009.3 |
| 20260503225003 | 13 | 317 | 3.2 | 11.3 | 0.00 | 0.00 | 0.00 | 30 | 1009.3 |
| 20260503224503 | 13 | 237 | 3.2 | 16.1 | 0.00 | 0.00 | 0.00 | 30 | 1009.3 |
| 20260503224004 | 13 | 6 | 6.4 | 27.4 | 0.00 | 0.00 | 0.00 | 29 | 1008.9 |
| 20260503223503 | 13 | 356 | 8.0 | 27.4 | 0.00 | 0.00 | 0.00 | 30 | 1008.9 |
| 20260503223003 | 13 | 318 | 8.0 | 20.9 | 0.00 | 0.00 | 0.00 | 29 | 1008.9 |
| 20260503222503 | 13 | 302 | 8.0 | 25.7 | 0.00 | 0.00 | 0.00 | 29 | 1009.3 |
| 20260503222003 | 13 | 299 | 8.0 | 25.7 | 0.00 | 0.00 | 0.00 | 29 | 1008.9 |
| 20260503221503 | 13 | 299 | 8.0 | 29.0 | 0.00 | 0.00 | 0.00 | 28 | 1008.9 |
| 20260503221003 | 13 | 309 | 8.0 | 29.0 | 0.00 | 0.00 | 0.00 | 29 | 1008.6 |
| 20260503220503 | 13 | 304 | 8.0 | 29.0 | 0.00 | 0.00 | 0.00 | 29 | 1008.9 |
| 20260503220003 | 13 | 262 | 4.8 | 16.1 | 0.00 | 0.00 | 0.00 | 29 | 1008.9 |
| 20260503215503 | 14 | 346 | 4.8 | 16.1 | 0.00 | 0.00 | 0.00 | 28 | 1008.9 |
| 20260503215003 | 13 | 315 | 6.4 | 24.1 | 0.00 | 0.00 | 0.00 | 29 | 1008.9 |
| 20260503214503 | 13 | 316 | 8.0 | 29.0 | 0.00 | 0.00 | 0.00 | 30 | 1009.3 |
| 20260503214003 | 13 | 327 | 6.4 | 29.0 | 0.00 | 0.00 | 0.00 | 30 | 1009.3 |
| 20260503213503 | 13 | 37 | 6.4 | 24.1 | 0.00 | 0.00 | 0.00 | 30 | 1008.9 |
| 20260503213003 | 13 | 284 | 8.0 | 22.5 | 0.00 | 0.00 | 0.00 | 30 | 1009.3 |
| 20260503212503 | 13 | 288 | 9.7 | 22.5 | 0.00 | 0.00 | 0.00 | 30 | 1009.3 |
| 20260503212003 | 13 | 312 | 9.7 | 45.1 | 0.00 | 0.00 | 0.00 | 29 | 1008.9 |
| 20260503211503 | 13 | 304 | 9.7 | 45.1 | 0.00 | 0.00 | 0.00 | 29 | 1008.9 |
| 20260503211003 | 12 | 303 | 9.7 | 24.1 | 0.00 | 0.00 | 0.00 | 30 | 1008.9 |
| 20260503210503 | 13 | 325 | 11.3 | 32.2 | 0.00 | 0.00 | 0.00 | 30 | 1008.9 |
| 20260503210004 | 12 | 329 | 12.9 | 32.2 | 0.00 | 0.00 | 0.00 | 30 | 1008.9 |
| 20260503205503 | 13 | 322 | 12.9 | 46.7 | 0.00 | 0.00 | 0.00 | 30 | 1008.9 |
| 20260503205003 | 13 | 298 | 11.3 | 46.7 | 0.00 | 0.00 | 0.00 | 29 | 1008.9 |
| 20260503204503 | 13 | 286 | 9.7 | 24.1 | 0.00 | 0.00 | 0.00 | 30 | 1008.9 |
| 20260503204003 | 13 | 332 | 9.7 | 38.6 | 0.00 | 0.00 | 0.00 | 30 | 1008.9 |
| 20260503203503 | 13 | 324 | 11.3 | 38.6 | 0.00 | 0.00 | 0.00 | 29 | 1008.9 |
| 20260503203003 | 12 | 309 | 12.9 | 35.4 | 0.00 | 0.00 | 0.00 | 31 | 1009.3 |
| 20260503202503 | 13 | 313 | 12.9 | 35.4 | 0.00 | 0.00 | 0.00 | 30 | 1009.3 |
| 20260503202003 | 13 | 310 | 9.7 | 29.0 | 0.00 | 0.00 | 0.00 | 29 | 1009.3 |
| 20260503201503 | 14 | 283 | 8.0 | 22.5 | 0.00 | 0.00 | 0.00 | 29 | 1008.9 |
| 20260503201003 | 13 | 288 | 8.0 | 24.1 | 0.00 | 0.00 | 0.00 | 30 | 1008.9 |
| 20260503200503 | 13 | 302 | 8.0 | 24.1 | 0.00 | 0.00 | 0.00 | 31 | 1009.3 |
| 20260503200003 | 13 | 295 | 9.7 | 27.4 | 0.00 | 0.00 | 0.00 | 32 | 1009.3 |
| 20260503195503 | 12 | 316 | 11.3 | 27.4 | 0.00 | 0.00 | 0.00 | 31 | 1008.9 |
| 20260503195003 | 12 | 39 | 9.7 | 27.4 | 0.00 | 0.00 | 0.00 | 32 | 1009.3 |
| 20260503194503 | 12 | 12 | 9.7 | 25.7 | 0.00 | 0.00 | 0.00 | 32 | 1008.9 |
| 20260503194003 | 12 | 317 | 11.3 | 37.0 | 0.00 | 0.00 | 0.00 | 32 | 1008.9 |
| 20260503193503 | 12 | 316 | 11.3 | 37.0 | 0.00 | 0.00 | 0.00 | 31 | 1008.9 |
| 20260503193003 | 13 | 304 | 9.7 | 30.6 | 0.00 | 0.00 | 0.00 | 31 | 1008.9 |
| 20260503192503 | 12 | 304 | 9.7 | 32.2 | 0.00 | 0.00 | 0.00 | 33 | 1008.9 |
| 20260503192003 | 12 | 325 | 11.3 | 32.2 | 0.00 | 0.00 | 0.00 | 30 | 1008.9 |
| 20260503191503 | 12 | 336 | 12.9 | 35.4 | 0.00 | 0.00 | 0.00 | 31 | 1008.9 |
| 20260503191003 | 12 | 339 | 11.3 | 35.4 | 0.00 | 0.00 | 0.00 | 31 | 1008.9 |
| 20260503190503 | 12 | 257 | 9.7 | 25.7 | 0.00 | 0.00 | 0.00 | 31 | 1008.9 |
| 20260503190003 | 13 | 277 | 11.3 | 24.1 | 0.00 | 0.00 | 0.00 | 31 | 1008.9 |
| 20260503185503 | 13 | 292 | 11.3 | 25.7 | 0.00 | 0.00 | 0.00 | 31 | 1008.6 |
| 20260503185003 | 12 | 314 | 9.7 | 25.7 | 0.00 | 0.00 | 0.00 | 31 | 1008.9 |
| 20260503184503 | 12 | 309 | 8.0 | 24.1 | 0.00 | 0.00 | 0.00 | 32 | 1008.9 |
| 20260503184003 | 12 | 328 | 11.3 | 27.4 | 0.00 | 0.00 | 0.00 | 31 | 1008.6 |
| 20260503183503 | 12 | 321 | 11.3 | 30.6 | 0.00 | 0.00 | 0.00 | 30 | 1008.9 |
| 20260503183003 | 12 | 292 | 11.3 | 30.6 | 0.00 | 0.00 | 0.00 | 31 | 1008.9 |
| 20260503182503 | 12 | 311 | 12.9 | 29.0 | 0.00 | 0.00 | 0.00 | 30 | 1008.9 |
| 20260503182004 | 12 | 316 | 11.3 | 24.1 | 0.00 | 0.00 | 0.00 | 30 | 1008.9 |
| 20260503181504 | 12 | 303 | 11.3 | 24.1 | 0.00 | 0.03 | 0.00 | 30 | 1008.6 |
| 20260503181004 | 12 | 334 | 11.3 | 25.7 | 0.00 | 0.03 | 0.00 | 30 | 1008.9 |
| 20260503180503 | 12 | 12 | 9.7 | 27.4 | 0.00 | 0.03 | 0.00 | 30 | 1008.6 |
| 20260503180004 | 13 | 338 | 6.4 | 27.4 | 0.00 | 0.03 | 0.00 | 31 | 1008.9 |